TAM3220 SBSP-SBFI

Flight info

Callsign TAM3220
Flight time 1h 32m
Altitude 34000
Route ASETA UZ152 UPORU
Aircraft A320/M-SDE3FGHIRWY/LB1

Departure

Time 2026-04-21 19:43
Airport Congonhas–Deputado Freitas Nobre Airport (SBSP)

Arrival

Time 2026-04-21 21:15
Airport Cataratas International Airport (SBFI)
Time Latitude Longitude Altitude Speed Heading
2026-04-21 17:43 -23.62720 -46.65825 2601 ft 0 kts 238°
2026-04-21 19:33 -23.62716 -46.65819 2601 ft 4 kts 238°
2026-04-21 19:33 -23.62703 -46.65794 2601 ft 4 kts 256°
2026-04-21 19:34 -23.62705 -46.65776 2601 ft 2 kts 327°
2026-04-21 19:34 -23.62715 -46.65769 2601 ft 0 kts 327°
2026-04-21 19:38 -23.62714 -46.65770 2601 ft 1 kts 327°
2026-04-21 19:38 -23.62701 -46.65777 2601 ft 7 kts 338°
2026-04-21 19:38 -23.62623 -46.65790 2602 ft 8 kts 338°
2026-04-21 19:39 -23.62580 -46.65814 2602 ft 6 kts 330°
2026-04-21 19:39 -23.62544 -46.65838 2602 ft 6 kts 328°
2026-04-21 19:39 -23.62485 -46.65879 2601 ft 15 kts 326°
2026-04-21 19:39 -23.62391 -46.65949 2601 ft 16 kts 329°
2026-04-21 19:40 -23.62299 -46.66009 2600 ft 15 kts 328°
2026-04-21 19:40 -23.62211 -46.66061 2599 ft 14 kts 331°
2026-04-21 19:40 -23.62134 -46.66114 2591 ft 7 kts 327°
2026-04-21 19:40 -23.62130 -46.66118 2590 ft 0 kts 327°
2026-04-21 19:41 -23.62092 -46.66138 2597 ft 14 kts 345°
2026-04-21 19:42 -23.62054 -46.66073 2595 ft 13 kts 134°
2026-04-21 19:42 -23.62083 -46.66051 2596 ft 0 kts 149°
2026-04-21 19:42 -23.62168 -46.65993 2599 ft 50 kts 147°
2026-04-21 19:43 -23.62686 -46.65633 2607 ft 123 kts 147°
2026-04-21 19:43 -23.63565 -46.65024 2720 ft 167 kts 150°
2026-04-21 19:43 -23.64515 -46.64341 3632 ft 162 kts 147°
2026-04-21 19:43 -23.65613 -46.63888 3985 ft 184 kts 176°
2026-04-21 19:44 -23.66987 -46.63958 4135 ft 212 kts 185°
2026-04-21 19:44 -23.68543 -46.64143 4408 ft 238 kts 186°
2026-04-21 19:44 -23.70274 -46.64359 4829 ft 262 kts 186°
2026-04-21 19:44 -23.72128 -46.64575 5508 ft 273 kts 186°
2026-04-21 19:45 -23.74021 -46.64858 6327 ft 278 kts 197°
2026-04-21 19:45 -23.75649 -46.65968 7057 ft 282 kts 229°
2026-04-21 19:45 -23.76578 -46.67848 7378 ft 284 kts 251°
2026-04-21 19:45 -23.77194 -46.69893 7474 ft 283 kts 251°
2026-04-21 19:46 -23.77852 -46.71916 7488 ft 283 kts 245°
2026-04-21 19:46 -23.78770 -46.73810 7490 ft 282 kts 238°
2026-04-21 19:46 -23.79843 -46.75602 7488 ft 282 kts 234°
2026-04-21 19:46 -23.80981 -46.77351 7748 ft 285 kts 233°
2026-04-21 19:47 -23.82120 -46.79086 8606 ft 286 kts 233°
2026-04-21 19:47 -23.83278 -46.80880 9428 ft 289 kts 234°
2026-04-21 19:47 -23.84425 -46.82697 10195 ft 293 kts 234°
2026-04-21 19:47 -23.85518 -46.84643 10455 ft 317 kts 244°
2026-04-21 19:48 -23.86154 -46.87027 10798 ft 336 kts 261°
2026-04-21 19:48 -23.86102 -46.89607 11382 ft 346 kts 278°
2026-04-21 19:48 -23.85334 -46.92112 12060 ft 351 kts 296°
2026-04-21 19:48 -23.84106 -46.94442 12725 ft 356 kts 299°
2026-04-21 19:49 -23.82837 -46.96786 13407 ft 360 kts 300°
2026-04-21 19:49 -23.81554 -46.99138 14126 ft 361 kts 300°
2026-04-21 19:49 -23.80258 -47.01505 14767 ft 363 kts 300°
2026-04-21 19:49 -23.78962 -47.03876 15416 ft 365 kts 300°
2026-04-21 19:50 -23.78082 -47.05489 15871 ft 366 kts 300°
2026-04-21 19:50 -23.76341 -47.08658 16688 ft 369 kts 303°
2026-04-21 19:50 -23.74689 -47.10812 17298 ft 373 kts 316°
2026-04-21 19:50 -23.72595 -47.12509 17894 ft 377 kts 329°
2026-04-21 19:51 -23.70171 -47.13630 18466 ft 382 kts 343°
2026-04-21 19:51 -23.67558 -47.14243 18955 ft 386 kts 347°
2026-04-21 19:51 -23.66667 -47.14434 19126 ft 387 kts 347°
2026-04-21 19:52 -23.61323 -47.15595 20141 ft 392 kts 347°
2026-04-21 19:52 -23.54490 -47.17098 21413 ft 399 kts 347°
2026-04-21 19:52 -23.51761 -47.17700 21904 ft 402 kts 347°
2026-04-21 19:53 -23.49008 -47.18306 22386 ft 405 kts 347°
2026-04-21 19:53 -23.46228 -47.18916 22857 ft 409 kts 347°
2026-04-21 19:53 -23.43427 -47.19527 23339 ft 412 kts 347°
2026-04-21 19:53 -23.40610 -47.20142 23776 ft 415 kts 347°
2026-04-21 19:54 -23.37771 -47.20764 24156 ft 417 kts 346°
2026-04-21 19:54 -23.34943 -47.21496 24556 ft 417 kts 338°
2026-04-21 19:54 -23.32377 -47.22925 24931 ft 414 kts 321°
2026-04-21 19:54 -23.30308 -47.25072 25291 ft 411 kts 305°
2026-04-21 19:55 -23.28898 -47.27758 25655 ft 409 kts 289°
2026-04-21 19:55 -23.28244 -47.30759 26031 ft 408 kts 273°
2026-04-21 19:55 -23.28210 -47.33843 26393 ft 409 kts 269°
2026-04-21 19:55 -23.28237 -47.36944 26767 ft 411 kts 269°
2026-04-21 19:56 -23.28266 -47.40057 27119 ft 413 kts 269°
2026-04-21 19:56 -23.28292 -47.43185 27446 ft 415 kts 269°
2026-04-21 19:56 -23.28317 -47.46328 27781 ft 417 kts 269°
2026-04-21 19:56 -23.28336 -47.49431 28113 ft 418 kts 269°
2026-04-21 19:57 -23.28352 -47.52599 28448 ft 420 kts 269°
2026-04-21 19:57 -23.28367 -47.55782 28779 ft 422 kts 269°
2026-04-21 19:57 -23.28381 -47.58973 29111 ft 423 kts 269°
2026-04-21 19:57 -23.28397 -47.62179 29425 ft 425 kts 269°
2026-04-21 19:58 -23.28416 -47.65393 29733 ft 426 kts 269°
2026-04-21 19:58 -23.28431 -47.68193 29995 ft 428 kts 269°
2026-04-21 19:58 -23.28446 -47.71436 30266 ft 429 kts 269°
2026-04-21 19:58 -23.28461 -47.74655 30519 ft 431 kts 269°
2026-04-21 19:59 -23.28474 -47.77918 30772 ft 432 kts 269°
2026-04-21 19:59 -23.28483 -47.81189 31015 ft 433 kts 269°
2026-04-21 19:59 -23.28493 -47.84467 31256 ft 434 kts 269°
2026-04-21 19:59 -23.28505 -47.87758 31490 ft 435 kts 268°
2026-04-21 20:00 -23.28521 -47.91046 31804 ft 434 kts 268°
2026-04-21 20:00 -23.28538 -47.94326 32138 ft 433 kts 268°
2026-04-21 20:00 -23.28551 -47.97601 32469 ft 432 kts 268°
2026-04-21 20:00 -23.28559 -48.00867 32809 ft 431 kts 268°
2026-04-21 20:01 -23.28564 -48.04116 33172 ft 429 kts 268°
2026-04-21 20:01 -23.28568 -48.07352 33536 ft 427 kts 267°
2026-04-21 20:01 -23.28716 -48.10566 33886 ft 423 kts 260°
2026-04-21 20:01 -23.29166 -48.13724 34027 ft 422 kts 258°
2026-04-21 20:02 -23.29470 -48.15784 34056 ft 422 kts 258°
2026-04-21 20:02 -23.30409 -48.22072 34057 ft 421 kts 258°
2026-04-21 20:03 -23.31337 -48.28351 34060 ft 420 kts 258°
2026-04-21 20:03 -23.32389 -48.35562 34059 ft 420 kts 259°
2026-04-21 20:04 -23.33199 -48.40821 34057 ft 419 kts 254°
2026-04-21 20:04 -23.35538 -48.47600 34056 ft 416 kts 246°
2026-04-21 20:05 -23.37335 -48.52426 34059 ft 416 kts 246°
2026-04-21 20:05 -23.39502 -48.58265 34059 ft 416 kts 246°
2026-04-21 20:06 -23.41646 -48.64071 34056 ft 416 kts 246°
2026-04-21 20:06 -23.43798 -48.69913 34056 ft 415 kts 246°
2026-04-21 20:07 -23.45949 -48.75742 34056 ft 415 kts 246°
2026-04-21 20:07 -23.48068 -48.81491 34057 ft 414 kts 246°
2026-04-21 20:08 -23.50218 -48.87327 34054 ft 415 kts 246°
2026-04-21 20:08 -23.52331 -48.93089 34054 ft 415 kts 246°
2026-04-21 20:09 -23.54471 -48.98913 34055 ft 415 kts 246°
2026-04-21 20:09 -23.56606 -49.04746 34054 ft 414 kts 246°
2026-04-21 20:10 -23.58747 -49.10583 34055 ft 415 kts 246°
2026-04-21 20:10 -23.60883 -49.16425 34057 ft 415 kts 246°
2026-04-21 20:11 -23.63013 -49.22270 34057 ft 415 kts 246°
2026-04-21 20:11 -23.65140 -49.28116 34054 ft 415 kts 246°
2026-04-21 20:12 -23.67238 -49.33889 34054 ft 414 kts 246°
2026-04-21 20:12 -23.69357 -49.39728 34051 ft 414 kts 246°
2026-04-21 20:13 -23.71483 -49.45574 34052 ft 414 kts 246°
2026-04-21 20:13 -23.73608 -49.51418 34051 ft 414 kts 246°
2026-04-21 20:14 -23.75710 -49.57225 34049 ft 414 kts 246°
2026-04-21 20:14 -23.77811 -49.63068 34052 ft 414 kts 247°
2026-04-21 20:15 -23.79855 -49.68760 34052 ft 413 kts 246°
2026-04-21 20:15 -23.81963 -49.74603 34052 ft 413 kts 246°
2026-04-21 20:16 -23.84035 -49.80371 34048 ft 413 kts 246°
2026-04-21 20:16 -23.86119 -49.86181 34049 ft 413 kts 246°
2026-04-21 20:17 -23.88186 -49.91947 34048 ft 413 kts 246°
2026-04-21 20:17 -23.90278 -49.97794 34059 ft 413 kts 246°
2026-04-21 20:18 -23.92008 -50.02648 34057 ft 412 kts 247°
2026-04-21 20:18 -23.94428 -50.09434 34059 ft 412 kts 246°
2026-04-21 20:19 -23.96505 -50.15262 34059 ft 412 kts 246°
2026-04-21 20:19 -23.98580 -50.21106 34059 ft 412 kts 247°
2026-04-21 20:20 -24.00646 -50.26939 34060 ft 411 kts 247°
2026-04-21 20:20 -24.02698 -50.32736 34059 ft 411 kts 247°
2026-04-21 20:21 -24.04757 -50.38577 34057 ft 411 kts 247°
2026-04-21 20:21 -24.06792 -50.44357 34059 ft 410 kts 247°
2026-04-21 20:22 -24.08817 -50.50113 34060 ft 410 kts 247°
2026-04-21 20:22 -24.11883 -50.58846 34059 ft 410 kts 247°
2026-04-21 20:23 -24.13925 -50.64672 34057 ft 410 kts 247°
2026-04-21 20:23 -24.15969 -50.70498 34057 ft 409 kts 247°
2026-04-21 20:24 -24.18009 -50.76317 34058 ft 409 kts 247°
2026-04-21 20:24 -24.20047 -50.82133 34057 ft 409 kts 247°
2026-04-21 20:25 -24.22082 -50.87950 34055 ft 409 kts 247°
2026-04-21 20:25 -24.24078 -50.93692 34054 ft 408 kts 247°
2026-04-21 20:26 -24.26086 -50.99456 34052 ft 407 kts 247°
2026-04-21 20:26 -24.28083 -51.05202 34051 ft 406 kts 248°
2026-04-21 20:27 -24.30087 -51.10996 34049 ft 406 kts 248°
2026-04-21 20:27 -24.32057 -51.16719 34048 ft 406 kts 248°
2026-04-21 20:28 -24.34050 -51.22509 34049 ft 406 kts 248°
2026-04-21 20:28 -24.36042 -51.28274 34048 ft 406 kts 248°
2026-04-21 20:29 -24.38043 -51.34065 34043 ft 406 kts 248°
2026-04-21 20:29 -24.40018 -51.39807 34043 ft 405 kts 248°
2026-04-21 20:30 -24.41988 -51.45550 34046 ft 405 kts 248°
2026-04-21 20:30 -24.43962 -51.51321 34046 ft 404 kts 248°
2026-04-21 20:31 -24.45933 -51.57108 34046 ft 404 kts 248°
2026-04-21 20:31 -24.47906 -51.62872 34045 ft 402 kts 248°
2026-04-21 20:32 -24.49832 -51.68501 34046 ft 402 kts 248°
2026-04-21 20:32 -24.51790 -51.74242 34045 ft 402 kts 248°
2026-04-21 20:33 -24.53719 -51.79924 34046 ft 402 kts 248°
2026-04-21 20:33 -24.55664 -51.85671 34047 ft 401 kts 249°
2026-04-21 20:34 -24.57609 -51.91400 34051 ft 400 kts 248°
2026-04-21 20:34 -24.59556 -51.97126 34052 ft 400 kts 249°
2026-04-21 20:35 -24.61489 -52.02859 34049 ft 400 kts 249°
2026-04-21 20:35 -24.63393 -52.08526 34049 ft 400 kts 249°
2026-04-21 20:36 -24.65297 -52.14173 34043 ft 399 kts 249°
2026-04-21 20:36 -24.67211 -52.19861 34040 ft 399 kts 249°
2026-04-21 20:37 -24.69130 -52.25588 34040 ft 399 kts 249°
2026-04-21 20:37 -24.71046 -52.31316 34040 ft 398 kts 249°
2026-04-21 20:38 -24.72940 -52.36971 34041 ft 398 kts 249°
2026-04-21 20:38 -24.74845 -52.42693 34038 ft 399 kts 249°
2026-04-21 20:39 -24.76753 -52.48421 34032 ft 398 kts 249°
2026-04-21 20:39 -24.78661 -52.54138 34032 ft 398 kts 249°
2026-04-21 20:40 -24.80589 -52.59856 34031 ft 399 kts 246°
2026-04-21 20:40 -24.83102 -52.65294 34032 ft 399 kts 243°
2026-04-21 20:41 -24.85694 -52.70691 33788 ft 397 kts 243°
2026-04-21 20:41 -24.86979 -52.73362 33259 ft 391 kts 243°
2026-04-21 20:41 -24.88194 -52.75897 32815 ft 386 kts 243°
2026-04-21 20:42 -24.89387 -52.78394 32378 ft 381 kts 243°
2026-04-21 20:42 -24.90646 -52.81034 31918 ft 376 kts 243°
2026-04-21 20:42 -24.91855 -52.83574 31468 ft 372 kts 243°
2026-04-21 20:42 -24.93048 -52.86089 31035 ft 368 kts 243°
2026-04-21 20:43 -24.94229 -52.88579 30605 ft 365 kts 243°
2026-04-21 20:43 -24.95399 -52.91047 30186 ft 362 kts 243°
2026-04-21 20:43 -24.96556 -52.93490 29739 ft 358 kts 243°
2026-04-21 20:43 -24.97702 -52.95906 29329 ft 353 kts 243°
2026-04-21 20:44 -24.98832 -52.98288 28943 ft 349 kts 243°
2026-04-21 20:44 -24.99945 -53.00643 28562 ft 344 kts 244°
2026-04-21 20:44 -25.01041 -53.02966 28183 ft 340 kts 244°
2026-04-21 20:44 -25.02126 -53.05262 27811 ft 335 kts 244°
2026-04-21 20:45 -25.03196 -53.07528 27437 ft 331 kts 244°
2026-04-21 20:45 -25.04229 -53.09715 27066 ft 328 kts 244°
2026-04-21 20:45 -25.05278 -53.11930 26689 ft 324 kts 244°
2026-04-21 20:45 -25.06311 -53.14123 26318 ft 321 kts 244°
2026-04-21 20:46 -25.07310 -53.16247 25942 ft 319 kts 244°
2026-04-21 20:46 -25.08327 -53.18408 25556 ft 316 kts 244°
2026-04-21 20:46 -25.09318 -53.20513 25176 ft 315 kts 244°
2026-04-21 20:46 -25.10327 -53.22649 24781 ft 314 kts 244°
2026-04-21 20:47 -25.11332 -53.24779 24384 ft 313 kts 244°
2026-04-21 20:47 -25.12335 -53.26901 23987 ft 312 kts 244°
2026-04-21 20:47 -25.13338 -53.29027 23574 ft 312 kts 244°
2026-04-21 20:47 -25.14339 -53.31151 23122 ft 311 kts 244°
2026-04-21 20:48 -25.15331 -53.33262 22720 ft 309 kts 244°
2026-04-21 20:48 -25.16314 -53.35360 22329 ft 307 kts 244°
2026-04-21 20:48 -25.16960 -53.36741 22075 ft 306 kts 244°
2026-04-21 20:48 -25.18263 -53.39522 21564 ft 304 kts 244°
2026-04-21 20:49 -25.18906 -53.40892 21311 ft 303 kts 244°
2026-04-21 20:49 -25.19876 -53.42958 20938 ft 302 kts 244°
2026-04-21 20:49 -25.20843 -53.45016 20599 ft 301 kts 244°
2026-04-21 20:49 -25.21810 -53.47082 20229 ft 300 kts 244°
2026-04-21 20:50 -25.22772 -53.49132 19847 ft 300 kts 244°
2026-04-21 20:50 -25.23719 -53.51153 19465 ft 300 kts 244°
2026-04-21 20:50 -25.24677 -53.53206 19105 ft 300 kts 244°
2026-04-21 20:50 -25.25605 -53.55194 18742 ft 300 kts 244°
2026-04-21 20:51 -25.26561 -53.57243 18370 ft 301 kts 244°
2026-04-21 20:51 -25.27523 -53.59297 17963 ft 301 kts 244°
2026-04-21 20:51 -25.28482 -53.61350 17578 ft 300 kts 244°
2026-04-21 20:51 -25.29438 -53.63393 17216 ft 299 kts 244°
2026-04-21 20:52 -25.30390 -53.65429 16857 ft 298 kts 244°
2026-04-21 20:52 -25.31342 -53.67461 16480 ft 297 kts 244°
2026-04-21 20:52 -25.32264 -53.69433 16135 ft 297 kts 244°
2026-04-21 20:52 -25.33208 -53.71462 15785 ft 297 kts 244°
2026-04-21 20:53 -25.34152 -53.73491 15433 ft 297 kts 244°
2026-04-21 20:53 -25.35097 -53.75520 15082 ft 297 kts 244°
2026-04-21 20:53 -25.36042 -53.77555 14731 ft 297 kts 244°
2026-04-21 20:53 -25.36988 -53.79586 14381 ft 298 kts 244°
2026-04-21 20:54 -25.37939 -53.81625 14029 ft 298 kts 244°
2026-04-21 20:54 -25.38887 -53.83662 13651 ft 299 kts 244°
2026-04-21 20:54 -25.39812 -53.85652 13281 ft 298 kts 244°
2026-04-21 20:54 -25.40745 -53.87660 12919 ft 297 kts 245°
2026-04-21 20:55 -25.41685 -53.89686 12556 ft 296 kts 245°
2026-04-21 20:55 -25.42622 -53.91707 12195 ft 295 kts 245°
2026-04-21 20:55 -25.43555 -53.93724 11825 ft 294 kts 245°
2026-04-21 20:55 -25.44487 -53.95736 11460 ft 293 kts 244°
2026-04-21 20:56 -25.45415 -53.97743 11081 ft 293 kts 244°
2026-04-21 20:56 -25.46343 -53.99748 10714 ft 293 kts 244°
2026-04-21 20:56 -25.47274 -54.01750 10329 ft 292 kts 243°
2026-04-21 20:56 -25.48418 -54.03622 9926 ft 294 kts 234°
2026-04-21 20:57 -25.49671 -54.05393 9538 ft 293 kts 234°
2026-04-21 20:57 -25.50920 -54.07157 9163 ft 290 kts 234°
2026-04-21 20:57 -25.52149 -54.08897 8668 ft 282 kts 234°
2026-04-21 20:57 -25.53350 -54.10600 8250 ft 281 kts 234°
2026-04-21 20:58 -25.54552 -54.12306 7829 ft 281 kts 234°
2026-04-21 20:58 -25.55752 -54.14010 7410 ft 280 kts 234°
2026-04-21 20:58 -25.56951 -54.15714 6976 ft 281 kts 234°
2026-04-21 20:58 -25.58152 -54.17421 6539 ft 281 kts 234°
2026-04-21 20:59 -25.59355 -54.19135 6083 ft 282 kts 234°
2026-04-21 20:59 -25.60562 -54.20854 5625 ft 282 kts 234°
2026-04-21 20:59 -25.61768 -54.22569 5167 ft 282 kts 234°
2026-04-21 20:59 -25.62975 -54.24289 4713 ft 283 kts 234°
2026-04-21 21:00 -25.64202 -54.25967 4298 ft 281 kts 233°
2026-04-21 21:00 -25.65456 -54.27622 3918 ft 278 kts 232°
2026-04-21 21:00 -25.66695 -54.29232 3277 ft 274 kts 231°
2026-04-21 21:00 -25.67855 -54.30848 2960 ft 255 kts 242°
2026-04-21 21:01 -25.68432 -54.32566 2994 ft 224 kts 264°
2026-04-21 21:01 -25.68423 -54.34225 2973 ft 207 kts 284°
2026-04-21 21:01 -25.67969 -54.35640 2952 ft 183 kts 298°
2026-04-21 21:01 -25.67444 -54.36839 2854 ft 164 kts 297°
2026-04-21 21:02 -25.66964 -54.37945 2799 ft 155 kts 297°
2026-04-21 21:02 -25.66504 -54.39004 2732 ft 150 kts 297°
2026-04-21 21:02 -25.66057 -54.40035 2667 ft 148 kts 297°
2026-04-21 21:02 -25.65567 -54.41031 2602 ft 148 kts 307°
2026-04-21 21:03 -25.64905 -54.41906 2391 ft 148 kts 312°
2026-04-21 21:03 -25.64251 -54.42744 2181 ft 147 kts 312°
2026-04-21 21:03 -25.63583 -54.43602 1961 ft 146 kts 312°
2026-04-21 21:03 -25.62918 -54.44452 1754 ft 146 kts 312°
2026-04-21 21:04 -25.62245 -54.45306 1524 ft 147 kts 312°
2026-04-21 21:04 -25.61573 -54.46169 1266 ft 148 kts 310°
2026-04-21 21:04 -25.60916 -54.47037 1085 ft 147 kts 312°
2026-04-21 21:04 -25.60245 -54.47884 828 ft 144 kts 312°
2026-04-21 21:05 -25.59635 -54.48664 801 ft 121 kts 311°
2026-04-21 21:05 -25.59028 -54.49431 849 ft 158 kts 313°
2026-04-21 21:05 -25.58234 -54.50393 1496 ft 170 kts 311°
2026-04-21 21:05 -25.57471 -54.51394 2348 ft 172 kts 311°
2026-04-21 21:06 -25.56619 -54.52396 2658 ft 192 kts 326°
2026-04-21 21:06 -25.55267 -54.52692 2980 ft 213 kts 14°
2026-04-21 21:06 -25.54053 -54.51769 3687 ft 222 kts 54°
2026-04-21 21:06 -25.53613 -54.50132 3955 ft 229 kts 93°
2026-04-21 21:07 -25.54097 -54.48451 4023 ft 232 kts 115°
2026-04-21 21:07 -25.54856 -54.46926 4035 ft 233 kts 117°
2026-04-21 21:07 -25.55652 -54.45362 4035 ft 234 kts 117°
2026-04-21 21:07 -25.56451 -54.43795 4032 ft 233 kts 117°
2026-04-21 21:08 -25.57243 -54.42246 4033 ft 233 kts 117°
2026-04-21 21:08 -25.57927 -54.40611 4037 ft 232 kts 109°
2026-04-21 21:08 -25.58553 -54.38965 4035 ft 232 kts 111°
2026-04-21 21:08 -25.59113 -54.37296 4016 ft 231 kts 106°
2026-04-21 21:09 -25.59604 -54.35613 4018 ft 229 kts 105°
2026-04-21 21:09 -25.60083 -54.33920 4023 ft 230 kts 105°
2026-04-21 21:09 -25.60558 -54.32228 4020 ft 230 kts 104°
2026-04-21 21:09 -25.61034 -54.30532 4020 ft 231 kts 105°
2026-04-21 21:10 -25.61803 -54.28979 4026 ft 233 kts 133°
2026-04-21 21:10 -25.63157 -54.28014 4027 ft 234 kts 163°
2026-04-21 21:10 -25.64742 -54.27892 4028 ft 233 kts 193°
2026-04-21 21:10 -25.66191 -54.28617 4023 ft 229 kts 223°
2026-04-21 21:11 -25.67278 -54.29922 3893 ft 227 kts 233°
2026-04-21 21:11 -25.68174 -54.31314 3584 ft 223 kts 248°
2026-04-21 21:11 -25.68567 -54.32947 3264 ft 219 kts 270°
2026-04-21 21:11 -25.68390 -54.34572 3104 ft 208 kts 290°
2026-04-21 21:12 -25.67819 -54.35988 3014 ft 195 kts 298°
2026-04-21 21:12 -25.67250 -54.37292 2883 ft 182 kts 297°
2026-04-21 21:12 -25.66731 -54.38488 2767 ft 171 kts 297°
2026-04-21 21:12 -25.66239 -54.39622 2634 ft 155 kts 297°
2026-04-21 21:13 -25.65780 -54.40660 2543 ft 148 kts 301°
2026-04-21 21:13 -25.65168 -54.41571 2396 ft 147 kts 312°
2026-04-21 21:13 -25.64535 -54.42383 2178 ft 146 kts 312°
2026-04-21 21:13 -25.63855 -54.43255 1969 ft 146 kts 311°
2026-04-21 21:14 -25.63194 -54.44104 1771 ft 145 kts 311°
2026-04-21 21:14 -25.62532 -54.44953 1576 ft 146 kts 311°
2026-04-21 21:14 -25.61863 -54.45807 1384 ft 147 kts 312°
2026-04-21 21:14 -25.61197 -54.46658 1178 ft 146 kts 312°
2026-04-21 21:15 -25.60542 -54.47506 961 ft 144 kts 311°
2026-04-21 21:15 -25.59893 -54.48338 802 ft 138 kts 311°
2026-04-21 21:15 -25.59357 -54.49019 800 ft 93 kts 311°
2026-04-21 21:15 -25.59055 -54.49404 797 ft 27 kts 311°
2026-04-21 21:16 -25.58978 -54.49483 796 ft 12 kts 336°
2026-04-21 21:16 -25.58935 -54.49535 796 ft 10 kts 220°
2026-04-21 21:16 -25.58981 -54.49502 796 ft 8 kts 130°
2026-04-21 21:16 -25.59017 -54.49455 797 ft 13 kts 130°
2026-04-21 21:17 -25.59119 -54.49328 796 ft 30 kts 132°
2026-04-21 21:17 -25.59275 -54.49128 800 ft 32 kts 130°
2026-04-21 21:17 -25.59418 -54.48946 801 ft 20 kts 131°
2026-04-21 21:17 -25.59512 -54.48915 800 ft 11 kts 217°
2026-04-21 21:18 -25.59528 -54.48929 799 ft 3 kts 216°
2026-04-21 21:18 -25.59550 -54.48934 799 ft 3 kts 177°
2026-04-21 21:18 -25.59568 -54.48922 799 ft 3 kts 143°
2026-04-21 21:18 -25.59598 -54.48885 799 ft 12 kts 130°
2026-04-21 21:19 -25.59646 -54.48863 798 ft 5 kts 229°
2026-04-21 21:19 -25.59658 -54.48874 798 ft 2 kts 222°
2026-04-21 21:19 -25.59666 -54.48882 798 ft 1 kts 220°
2026-04-21 21:19 -25.59667 -54.48883 798 ft 0 kts 220°